User: anonymous   Login
Location: NJAA Observatory
(40.6819°N, 74.8979°W)
Time: 11:48:49
(UTC-04:00)
Language:

Cosmos 1461 - Orbit

View from above orbital plane
View from above orbital plane
View from above satellite
View from above satellite

Ground track
Ground track

The orbit data is extracted from the following two-line orbital elements,

1 14064U 83044A   17177.76264121 +.00000153 +00000-0 +28538-4 0  9995
2 14064 065.0013 255.2022 0091495 032.6368 328.0355 14.93640486724785
Epoch (UTC): 26 June 2017 18:18:12
Eccentricity: 0.0091495
inclination: 65.0013°
perigee height: 523 km
apogee height: 650 km
right ascension of ascending node: 255.2022°
argument of perigee: 32.6368°
revolutions per day: 14.93640486
mean anomaly at epoch: 328.0355°
orbit number at epoch: 72478

The dashed part of the orbit path shows where the satellite is in the earth's shadow,  

DLR